Regional Weather Roundup
Issued by NWS Tiyan, Guam

Home | Current Version | Previous Version | Text Only | Print | Product List | Glossary On
Versions: 1 2 3 4 5 6 7 8 9 10 11 12 13 14 15 16 17 18 19 20 21 22 23 24 25 26 27 28
000
ASGM40 PGUM 170812
RWRGUM
WEATHER ROUNDUP FOR THE MARIANAS
NATIONAL WEATHER SERVICE TIYAN GU
600 PM CHST THU AUG 17 2017

GUZ001>004-170900-
MARIANA ISLANDS-

CITY           SKY/WX    TMP DP  RH WIND       PRES   REMARKS
GUAM AIRPORT   PTCLDY    81  79  94 SE7       29.79R
ANDERSEN AFB   CLEAR     79  75  89 SE9       29.84R
ROTA AIRPORT   MOCLDY    82  75  78 SE15      29.79R
TINIAN AP      MOCLDY    82  75  78 SE6       29.77
SAIPAN AP      PTCLDY    86  75  70 SE8       29.78R HX  95

$$





USA.gov is the U.S. government's official web portal to all federal, state and local government web resources and services.